Mount Airy, NC

3:27 AM EDT on September 16, 2019 (GMT -0400)
Mount Airy-Surry County

Weather History for KMWK - July, 2019

Change the Weather History Date:

Tuesday, July 16, 2019

  Actual Average (KINT) Record (KINT)
Temperature  
Mean Temperature 81 °F -  
Max Temperature 90 °F 85 °F 98 °F (1988)
Min Temperature 72 °F 67 °F 52 °F (1967)
Cooling Degree Days 16    
Growing Degree Days 31 (Base 50)    
Moisture  
Dew Point 72 °F    
Average Humidity 76    
Maximum Humidity 90    
Minimum Humidity 51    
Precipitation  
Precipitation 0.00 in - - ()
Sea Level Pressure  
Sea Level Pressure 30.16 in    
Wind  
Wind Speed 1 mph (WSW)    
Max Wind Speed 6 mph    
Max Gust Speed -    
Visibility 10 miles    
Events      
Averages and records for this station are not official NWS values.
T = Trace of Precipitation, MM = Missing Value Source: NWS Daily Summary

Daily Weather History Graph

Daily Weather History Graph

Search for Another Location

Airport or City:

Astronomy

Jul. 16, 2019 Rise Set
Actual Time 6:16 AM EDT 8:39 PM EDT
Civil Twilight 5:46 AM EDT 9:09 PM EDT
Nautical Twilight 5:10 AM EDT 9:45 PM EDT
Astronomical Twilight 4:29 AM EDT 10:25 PM EDT
Moon 8:44 PM EDT 5:53 AM EDT
Length of Visible Light 15h 22m
Length of Day
14h 23m
Full, 100% of the Moon is Illuminated
Jul 16
Full
Jul 16
Full
Jul 24
Last Quarter
Jul 31
New
Aug 7
First Quarter

Hourly Weather History & Observations

Time (EDT) Temp. Heat Index Dew Point Humidity Pressure Visibility Wind Dir Wind Speed Gust Speed Precip Events Conditions
12:00 AM 75.9 °F - 72.0 °F 87% 30.17 in 10.0 mi Calm Calm - N/A   Clear
12:20 AM 76.1 °F - 72.5 °F 89% 30.17 in 10.0 mi Calm Calm - N/A   Clear
12:40 AM 76.3 °F - 72.1 °F 87% 30.17 in 10.0 mi Calm Calm - N/A   Clear
1:00 AM 75.2 °F - 71.6 °F 89% 30.17 in 10.0 mi Calm Calm - N/A   Clear
1:20 AM 76.5 °F - 72.0 °F 86% 30.17 in 10.0 mi Calm Calm - N/A   Clear
1:40 AM 76.5 °F - 72.0 °F 86% 30.16 in 10.0 mi Calm Calm - N/A   Clear
2:00 AM 75.7 °F - 72.0 °F 88% 30.16 in 10.0 mi Calm Calm - N/A   Clear
2:20 AM 74.8 °F - 71.6 °F 90% 30.15 in 10.0 mi Calm Calm - N/A   Clear
2:40 AM 75.2 °F - 71.4 °F 88% 30.15 in 10.0 mi Calm Calm - N/A   Clear
3:00 AM 74.8 °F - 71.6 °F 90% 30.15 in 10.0 mi Calm Calm - N/A   Clear
3:20 AM 74.5 °F - 70.9 °F 88% 30.14 in 10.0 mi Calm Calm - N/A   Clear
3:40 AM 74.3 °F - 70.7 °F 88% 30.14 in 10.0 mi Calm Calm - N/A   Clear
4:00 AM 73.8 °F - 70.7 °F 90% 30.14 in 10.0 mi Calm Calm - N/A   Clear
4:20 AM 73.6 °F - 70.2 °F 89% 30.15 in 10.0 mi Calm Calm - N/A   Clear
4:40 AM 73.4 °F - 70.0 °F 89% 30.15 in 10.0 mi Calm Calm - N/A   Clear
5:00 AM 72.7 °F - 69.6 °F 90% 30.16 in 10.0 mi Calm Calm - N/A   Clear
5:20 AM 72.5 °F - 69.4 °F 90% 30.16 in 10.0 mi Calm Calm - N/A   Clear
5:40 AM 72.5 °F - 69.4 °F 90% 30.17 in 10.0 mi Calm Calm - N/A   Clear
6:00 AM 72.9 °F - 69.8 °F 90% 30.17 in 10.0 mi Calm Calm - N/A   Clear
6:20 AM 73.0 °F - 69.8 °F 90% 30.17 in 10.0 mi Calm Calm - N/A   Clear
6:40 AM 73.4 °F - 70.0 °F 89% 30.18 in 10.0 mi Calm Calm - N/A   Clear
7:00 AM 73.6 °F - 70.0 °F 88% 30.18 in 10.0 mi Calm Calm - N/A   Clear
7:40 AM 74.5 °F - 71.1 °F 89% 30.19 in 10.0 mi Calm Calm - N/A   Clear
8:00 AM 74.8 °F - 71.4 °F 89% 30.19 in 10.0 mi Calm Calm - N/A   Clear
8:20 AM 74.8 °F - 71.4 °F 89% 30.20 in 10.0 mi Calm Calm - N/A   Clear
8:40 AM 75.6 °F - 71.6 °F 87% 30.20 in 10.0 mi Calm Calm - N/A   Clear
9:00 AM 76.3 °F - 71.2 °F 84% 30.20 in 10.0 mi Calm Calm - N/A   Clear
9:20 AM 77.9 °F - 72.5 °F 83% 30.20 in 10.0 mi Calm Calm - N/A   Clear
9:40 AM 80.1 °F 84.2 °F 72.9 °F 79% 30.20 in 10.0 mi Calm Calm - N/A   Clear
10:00 AM 81.7 °F 86.7 °F 72.7 °F 74% 30.20 in 10.0 mi Calm Calm - N/A   Clear
10:20 AM 82.6 °F 87.3 °F 71.4 °F 69% 30.20 in 10.0 mi Calm Calm - N/A   Clear
10:40 AM 83.5 °F 89.4 °F 72.7 °F 70% 30.20 in 10.0 mi Calm Calm - N/A   Clear
11:00 AM 84.4 °F 91.0 °F 73.2 °F 69% 30.20 in 10.0 mi Calm Calm - N/A   Clear
11:20 AM 84.9 °F 91.4 °F 72.9 °F 67% 30.19 in 10.0 mi Calm Calm - N/A   Clear
11:40 AM 87.4 °F 95.8 °F 74.1 °F 64% 30.19 in 10.0 mi West 4.6 mph - N/A   Clear
12:00 PM 87.1 °F 94.1 °F 72.9 °F 62% 30.19 in 10.0 mi SSE 3.5 mph - N/A   Clear
12:20 PM 87.8 °F 95.6 °F 73.2 °F 62% 30.19 in 10.0 mi West 4.6 mph - N/A   Clear
12:40 PM 88.0 °F 94.2 °F 71.6 °F 58% 30.19 in 10.0 mi Calm Calm - N/A   Clear
1:00 PM 87.6 °F 94.3 °F 72.0 °F 60% 30.19 in 10.0 mi SW 3.5 mph - N/A   Clear
1:20 PM 88.2 °F 92.9 °F 69.8 °F 54% 30.19 in 10.0 mi South 4.6 mph - N/A   Clear
1:40 PM 88.3 °F 94.1 °F 71.1 °F 56% 30.18 in 10.0 mi WSW 5.8 mph - N/A   Clear
2:00 PM 90.0 °F 95.9 °F 70.9 °F 53% 30.18 in 10.0 mi West 3.5 mph - N/A   Clear
2:20 PM 89.8 °F 95.1 °F 70.2 °F 52% 30.17 in 10.0 mi West 5.8 mph - N/A   Clear
2:40 PM 89.6 °F 94.3 °F 69.3 °F 51% 30.17 in 10.0 mi South 5.8 mph - N/A   Clear
3:00 PM 90.1 °F 96.3 °F 70.9 °F 53% 30.16 in 10.0 mi WSW 5.8 mph - N/A   Clear
3:20 PM 90.5 °F 96.0 °F 70.0 °F 51% 30.16 in 10.0 mi SW 4.6 mph - N/A   Clear
3:40 PM 89.1 °F 94.6 °F 70.3 °F 54% 30.15 in 10.0 mi Calm Calm - N/A   Clear
4:00 PM 88.0 °F 94.2 °F 71.6 °F 58% 30.14 in 10.0 mi WSW 4.6 mph - N/A   Clear
4:20 PM 88.2 °F 95.5 °F 72.7 °F 60% 30.14 in 10.0 mi West 3.5 mph - N/A   Clear
4:40 PM 88.3 °F 95.9 °F 72.7 °F 60% 30.13 in 10.0 mi Calm Calm - N/A   Clear
5:00 PM 88.9 °F 97.1 °F 73.6 °F 60% 30.12 in 10.0 mi SW 3.5 mph - N/A   Clear
5:20 PM 89.1 °F 97.0 °F 72.9 °F 59% 30.12 in 10.0 mi Calm Calm - N/A   Clear
5:40 PM 87.8 °F 96.6 °F 74.1 °F 64% 30.11 in 10.0 mi Calm Calm - N/A   Clear
6:00 PM 88.2 °F 96.9 °F 73.9 °F 63% 30.11 in 10.0 mi Calm Calm - N/A   Clear
6:20 PM 88.2 °F 96.9 °F 74.1 °F 63% 30.11 in 10.0 mi Calm Calm - N/A   Clear
6:40 PM 88.2 °F 98.0 °F 74.8 °F 65% 30.10 in 10.0 mi Calm Calm - N/A   Clear
7:00 PM 88.9 °F 97.6 °F 73.9 °F 61% 30.10 in 10.0 mi Calm Calm - N/A   Clear
7:20 PM 87.8 °F 96.6 °F 74.5 °F 64% 30.10 in 10.0 mi Calm Calm - N/A   Clear
7:40 PM 87.6 °F 96.7 °F 74.7 °F 65% 30.10 in 10.0 mi Calm Calm - N/A   Clear
8:00 PM 86.4 °F 95.1 °F 74.5 °F 68% 30.10 in 10.0 mi Calm Calm - N/A   Clear
8:20 PM 85.3 °F 95.8 °F 77.0 °F 76% 30.10 in 10.0 mi Calm Calm - N/A   Clear
8:40 PM 82.6 °F 91.1 °F 77.0 °F 83% 30.11 in 10.0 mi Calm Calm - N/A   Clear
9:00 PM 82.0 °F 90.2 °F 77.0 °F 85% 30.11 in 10.0 mi Calm Calm - N/A   Clear
9:20 PM 80.6 °F 86.6 °F 75.9 °F 86% 30.13 in 10.0 mi Calm Calm - N/A   Clear
9:40 PM 81.5 °F 88.3 °F 75.9 °F 83% 30.14 in 10.0 mi Calm Calm - N/A   Clear
10:00 PM 81.0 °F 87.1 °F 75.7 °F 84% 30.14 in 10.0 mi Calm Calm - N/A   Clear
10:20 PM 79.2 °F - 75.2 °F 88% 30.14 in 10.0 mi Calm Calm - N/A   Clear
10:40 PM 78.1 °F - 74.5 °F 89% 30.14 in 10.0 mi Calm Calm - N/A   Clear
11:00 PM 77.7 °F - 74.3 °F 89% 30.14 in 10.0 mi Calm Calm - N/A   Clear
11:20 PM 77.9 °F - 74.3 °F 89% 30.14 in 10.0 mi Calm Calm - N/A   Clear
11:40 PM 77.9 °F - 74.1 °F 88% 30.14 in 10.0 mi Calm Calm - N/A   Clear